Regional Weather Roundup
Issued by NWS Charleston, SC

Current Version | Previous Version | Graphics & Text | Print | Product List | Glossary On
Versions: 1 2 3 4 5 6 7 8 9 10 11 12 13 14 15 16 17 18 19 20 21 22 23 24 25 26 27 28 29 30 31 32 33 34 35 36 37 38 39 40 41 42 43 44 45 46 47 48 49 50
000
ASUS42 KCHS 301528
RWRCHS

REGIONAL WEATHER ROUNDUP
NATIONAL WEATHER SERVICE CHARLESTON SC
1100 AM EDT TUE AUG 30 2016

NOTE: "FAIR" INDICATES FEW OR NO CLOUDS BELOW 12,000 FEET WITH NO
SIGNIFICANT WEATHER AND/OR OBSTRUCTIONS TO VISIBILITY.

NOT ALL STATIONS ARE QUALITY CONTROLLED. USE DATA WITH CAUTION...
ESPECIALLY DEWPOINT OBSERVATIONS.

SCZ027-030-031-034>040-042>050-301600-
...SOUTHEAST SOUTH CAROLINA...

CITY           SKY/WX    TMP DP  RH WIND       PRES   REMARKS
N CHARLESTON   CLOUDY    77  73  87 NE5       30.10R
WATERFRONT PRK   N/A     77  76  97 NE5       30.07R
MOUNT PLEASANT FAIR      75  73  94 CALM      30.11R
JOHNS ISLAND   DRIZZLE   75  73  94 SE6G12    30.12R
PINOPOLIS        N/A     77  72  83 E5        30.03R
MONCKS CORNER  CLOUDY    75  70  83 CALM      30.11R
SUMMERVILLE    FAIR      79  75  89 E5        30.11R
BEAUFORT MCAS  CLOUDY    79  75  87 NE6       30.09R
BEAUFORT ARPT  LGT RAIN  79  77  94 E6        30.08S
HILTON HEAD IS DRIZZLE   77  73  88 S6        30.09S
WALTERBORO     CLOUDY    81  81 100 NE7       30.11R HX  91
ALLENDALE      FAIR      84  73  70 VRB6      30.08S HX  91

...SOUTHERN MIDLANDS AND PEE DEE...

CITY           SKY/WX    TMP DP  RH WIND       PRES   REMARKS
GEORGETOWN     FAIR      79  70  73 CALM      30.10S
KINGSTREE      FAIR      81  70  69 NE3       30.10S
ORANGEBURG     CLOUDY    84  73  69 VRB7      30.10R HX  90
BARNWELL       NOT AVBL
AIKEN          CLOUDY    77  70  78 NE8       30.15R
MANNING        FAIR      81  72  74 E5        30.11R
COLUMBIA       PTSUNNY   81  72  74 CALM      30.10S
SUMTER         PTSUNNY   84  72  65 NE9       30.08R
FLORENCE       MOSUNNY   86  65  49 NE10G18   30.10R
MYRTLE BEACH   CLOUDY    82  63  51 N6        30.10S
N MYRTLE BEACH CLOUDY    80  68  66 N7        30.08S

$$

GAZ063-065-086>088-099>101-113>116-118-119-134>141-150-301600-
...SOUTHEAST GEORGIA...

CITY           SKY/WX    TMP DP  RH WIND       PRES   REMARKS
SAVANNAH ARPT  CLOUDY    75  71  87 E8        30.08F
HUNTER AAF     PTSUNNY   73  73 100 NE1       30.05F
FORT STEWART   PTSUNNY   79  74  84 NE7       30.04S
STATESBORO     PTSUNNY   83  75  76 E6        30.08S HX  91
SYLVANIA       NOT AVBL
CLAXTON        PTSUNNY   84  75  73 NE15      30.07S HX  92

...CSRA...CENTRAL AND FAR SOUTHEAST GEORGIA...

CITY           SKY/WX    TMP DP  RH WIND       PRES   REMARKS
THOMSON        NOT AVBL
AUGUSTA-BUSH   PTSUNNY   86  71  60 E6        30.09R HX  91
AUGUSTA-DANIEL MOSUNNY   87  70  56 VRB7      30.11R HX  92
SWAINSBORO     PTSUNNY   86  70  58 SE12      30.09R HX  90
VIDALIA        CLOUDY    84  77  79 E9        30.07S HX  94
EASTMAN        PTSUNNY   86  64  47 E8        30.09S
HAZLEHURST     PTSUNNY   85  77  76 NE10G16   30.05S HX  96
ALMA           MOSUNNY   84  74  71 E8        30.04S HX  91
WAYCROSS         N/A     91  78  66 E13       30.03S HX 104
JESUP          PTSUNNY   88  79  74 E9        30.04F HX 102
BAXLEY         PTSUNNY   86  79  79 E10G16    30.05S HX  99
BRUNSWICK      HVY RAIN  79  77  94 CALM      30.05R
SAINT SIMONS   MOSUNNY   86  74  67 E13       30.03R HX  94

$$

SCZ027-028-034-036>038-045-046-048>050-GAZ119-141-301600-
...LAKE AND SUPPLEMENTAL COASTAL OBSERVATIONS...

STATION/POSITION TIME  TEMP    WIND        PRES    WAVE   SWELL
                       AIR SEA DIR/SP/G            HT/PER HT/PER/DIR
                 (UTC) (F)     (DEG/KT/KT) (MB)    (FT/S) (FT/S/D)
WINYAH BAY       1445   80      50/  9     1018.0S
LAKE MURRAY      1500   82      CALM  /  3 1019.0F
ACE BASIN NERRS  1400   77        CALM     1018.0S
FORT PULASKI     1500   77 85   40/  8/ 10 1018.6F
SAPELO ISLAND    1500   85      60/  9     1017.0S

$$

ANZ835-935-AMZ111-154-330-350-352-354-370-450-454-472-301600-
...C-MAN AND BUOY OBSERVATIONS...

STATION/POSITION TIME  TEMP    WIND        PRES    WAVE   SWELL
                       AIR SEA DIR/SP/G            HT/PER HT/PER/DIR
                 (UTC) (F)     (DEG/KT/KT) (MB)    (FT/S) (FT/S/D)
BUOY 41004       1450   77 85  170/  6/ 10 1018.4R   4/12   3/120/12
BUOY 41008       1450   82 85   60/ 14/ 16 1017.2R   3/13   3/ 80/13
FOLLY BEACH CMAN 1500   76     150/ 14/ 15 1020.0R
CAPERS NEARSHORE 1508   80 83   60/ 10/ 14 1019.1R
FRIPP NEARSHORE  1508   77 85  130/  8/ 14 1018.5R


STATION/POSITION TIME  TEMP    WIND        PRES    WAVE   SWELL
                       AIR SEA DIR/SP/G            HT/PER HT/PER/DIR
                 (UTC) (F)     (DEG/KT/KT) (MB)    (FT/S) (FT/S/D)
5E ST. MARYS GA  1501      85                N/A     4/13   2/100/13
FRYING PAN BUOY  1500   81 85   30/  8/ 10 1017.5R
BUOY 41025       1450   83 84   70/ 14/ 17 1016.7R   7/12   5/120/12
CAPE LOOKOUT NC  1500   82      10/ 13/ 15 1017.0S
BUOY 41002       1450   83 84  280/ 10/ 14 1017.5R   4/10   3/110/10
BUOY 41010       NOT AVBL
ST AUGUSTINE FL  1500   75 83  150/ 14/ 17 1016.6R


$$




USA.gov is the U.S. government's official web portal to all federal, state and local government web resources and services.